Time,TemperatureF,DewpointF,PressureIn,WindDirection,WindDirectionDegrees,WindSpeedMPH,WindSpeedGustMPH,Humidity,HourlyPrecipIn,Conditions,Clouds,dailyrainin,SoftwareType,DateUTC
2013-08-11 00:04:00,68.7,68.4,30.06,NE,45,0.0,-999.0,99,-99.99,,,0.00,Acu-Link.com,2013-08-11 04:04:00,
2013-08-11 00:19:00,68.4,68.1,30.07,SE,135,0.0,-999.0,99,-99.99,,,0.00,Acu-Link.com,2013-08-11 04:19:00,
2013-08-11 00:35:00,68.2,67.9,30.07,ENE,67,0.0,-999.0,99,-99.99,,,0.00,Acu-Link.com,2013-08-11 04:35:00,
2013-08-11 00:50:00,68.2,67.9,30.06,WNW,292,0.0,-999.0,99,-99.99,,,0.00,Acu-Link.com,2013-08-11 04:50:00,
2013-08-11 01:05:00,68.2,67.9,30.07,East,90,0.0,-999.0,99,-99.99,,,0.00,Acu-Link.com,2013-08-11 05:05:00,
2013-08-11 01:20:00,68.0,67.7,30.07,East,90,0.0,-999.0,99,-99.99,,,0.00,Acu-Link.com,2013-08-11 05:20:00,
2013-08-11 01:51:00,67.8,67.5,30.07,East,90,0.0,-999.0,99,-99.99,,,0.00,Acu-Link.com,2013-08-11 05:51:00,
2013-08-11 02:06:00,67.6,67.3,30.06,SW,225,0.0,-999.0,99,-99.99,,,0.00,Acu-Link.com,2013-08-11 06:06:00,
2013-08-11 02:22:00,67.5,67.2,30.06,East,90,0.0,-999.0,99,-99.99,,,0.00,Acu-Link.com,2013-08-11 06:22:00,
2013-08-11 02:37:00,67.5,67.2,30.06,East,90,0.0,-999.0,99,-99.99,,,0.00,Acu-Link.com,2013-08-11 06:37:00,
2013-08-11 02:52:00,67.5,67.2,30.06,NE,45,0.0,-999.0,99,-99.99,,,0.00,Acu-Link.com,2013-08-11 06:52:00,
2013-08-11 03:08:00,67.6,67.3,30.06,ENE,67,0.0,-999.0,99,-99.99,,,0.00,Acu-Link.com,2013-08-11 07:08:00,
2013-08-11 03:23:00,67.6,67.3,30.06,WNW,292,0.0,-999.0,99,-99.99,,,0.00,Acu-Link.com,2013-08-11 07:23:00,
2013-08-11 03:38:00,67.5,67.2,30.06,East,90,0.0,-999.0,99,-99.99,,,0.00,Acu-Link.com,2013-08-11 07:38:00,
2013-08-11 03:53:00,67.3,67.0,30.07,NE,45,0.0,-999.0,99,-99.99,,,0.00,Acu-Link.com,2013-08-11 07:53:00,
2013-08-11 04:10:00,67.3,67.0,30.06,West,270,0.0,-999.0,99,-99.99,,,0.00,Acu-Link.com,2013-08-11 08:10:00,
2013-08-11 04:26:00,67.3,67.0,30.07,WSW,247,0.0,-999.0,99,-99.99,,,0.00,Acu-Link.com,2013-08-11 08:26:00,
2013-08-11 04:41:00,67.3,67.0,30.07,South,180,0.0,-999.0,99,-99.99,,,0.00,Acu-Link.com,2013-08-11 08:41:00,
2013-08-11 04:57:00,66.9,66.6,30.06,East,90,0.0,-999.0,99,-99.99,,,0.00,Acu-Link.com,2013-08-11 08:57:00,
2013-08-11 05:12:00,66.7,66.4,30.07,NE,45,0.0,-999.0,99,-99.99,,,0.00,Acu-Link.com,2013-08-11 09:12:00,
2013-08-11 05:27:00,66.7,66.4,30.07,WNW,292,0.0,-999.0,99,-99.99,,,0.00,Acu-Link.com,2013-08-11 09:27:00,
2013-08-11 05:42:00,66.7,66.4,30.07,West,270,0.0,-999.0,99,-99.99,,,0.00,Acu-Link.com,2013-08-11 09:42:00,
2013-08-11 05:57:00,66.7,66.4,30.08,ESE,112,0.0,-999.0,99,-99.99,,,0.00,Acu-Link.com,2013-08-11 09:57:00,
2013-08-11 06:12:00,66.6,66.3,30.08,SSW,202,0.0,-999.0,99,-99.99,,,0.00,Acu-Link.com,2013-08-11 10:12:00,
2013-08-11 06:58:00,66.6,66.3,30.09,NE,45,0.0,-999.0,99,-99.99,,,0.01,Acu-Link.com,2013-08-11 10:58:00,
2013-08-11 07:13:00,66.6,66.3,30.09,NE,45,0.0,-999.0,99,-99.99,,,0.01,Acu-Link.com,2013-08-11 11:13:00,
2013-08-11 07:28:00,66.4,66.1,30.09,SSE,157,0.0,-999.0,99,-99.99,,,0.01,Acu-Link.com,2013-08-11 11:28:00,
2013-08-11 07:43:00,66.6,66.3,30.09,NE,45,0.0,-999.0,99,-99.99,,,0.01,Acu-Link.com,2013-08-11 11:43:00,
2013-08-11 07:58:00,66.6,66.3,30.09,WNW,292,0.0,-999.0,99,-99.99,,,0.01,Acu-Link.com,2013-08-11 11:58:00,
2013-08-11 08:14:00,66.9,66.6,30.09,NE,45,0.0,-999.0,99,-99.99,,,0.01,Acu-Link.com,2013-08-11 12:14:00,
2013-08-11 08:29:00,66.9,66.6,30.10,SE,135,0.0,-999.0,99,-99.99,,,0.01,Acu-Link.com,2013-08-11 12:29:00,
2013-08-11 08:44:00,67.6,67.3,30.10,ESE,112,0.0,-999.0,99,-99.99,,,0.01,Acu-Link.com,2013-08-11 12:44:00,
2013-08-11 08:59:00,68.2,67.9,30.10,East,90,0.0,-999.0,99,-99.99,,,0.01,Acu-Link.com,2013-08-11 12:59:00,
2013-08-11 09:15:00,69.3,69.0,30.11,ENE,67,0.0,-999.0,99,-99.99,,,0.01,Acu-Link.com,2013-08-11 13:15:00,
2013-08-11 09:45:00,69.6,69.3,30.11,SSE,157,0.0,-999.0,99,-99.99,,,0.01,Acu-Link.com,2013-08-11 13:45:00,
2013-08-11 10:00:00,72.9,70.8,30.11,South,180,0.0,-999.0,93,-99.99,,,0.01,Acu-Link.com,2013-08-11 14:00:00,
2013-08-11 10:16:00,73.6,71.4,30.11,South,180,0.0,-999.0,93,-99.99,,,0.01,Acu-Link.com,2013-08-11 14:16:00,
2013-08-11 10:31:00,74.3,71.8,30.10,SW,225,0.0,-999.0,92,-99.99,,,0.01,Acu-Link.com,2013-08-11 14:31:00,
2013-08-11 10:46:00,75.9,71.7,30.11,South,180,0.0,-999.0,87,-99.99,,,0.01,Acu-Link.com,2013-08-11 14:46:00,
2013-08-11 11:02:00,78.1,74.2,30.10,SW,225,0.0,-999.0,88,-99.99,,,0.01,Acu-Link.com,2013-08-11 15:02:00,
2013-08-11 11:47:00,81.5,73.2,30.10,ENE,67,1.7,-999.0,76,-99.99,,,0.01,Acu-Link.com,2013-08-11 15:47:00,
2013-08-11 12:02:00,80.1,75.2,30.09,SE,135,2.2,-999.0,85,-99.99,,,0.01,Acu-Link.com,2013-08-11 16:02:00,
2013-08-11 12:18:00,82.2,75.4,30.10,ESE,112,2.7,-999.0,80,-99.99,,,0.01,Acu-Link.com,2013-08-11 16:18:00,
2013-08-11 12:48:00,80.8,74.8,30.08,ENE,67,2.2,-999.0,82,-99.99,,,0.01,Acu-Link.com,2013-08-11 16:48:00,
2013-08-11 13:03:00,80.6,73.8,30.08,ESE,112,1.7,-999.0,80,-99.99,,,0.01,Acu-Link.com,2013-08-11 17:03:00,
2013-08-11 13:19:00,80.6,74.2,30.07,ENE,67,0.0,-999.0,81,-99.99,,,0.01,Acu-Link.com,2013-08-11 17:19:00,
2013-08-11 13:34:00,81.5,74.7,30.07,East,90,1.7,-999.0,80,-99.99,,,0.01,Acu-Link.com,2013-08-11 17:34:00,
2013-08-11 13:49:00,83.1,75.5,30.06,NE,45,2.7,-999.0,78,-99.99,,,0.01,Acu-Link.com,2013-08-11 17:49:00,
2013-08-11 14:05:00,81.5,73.6,30.07,NW,315,1.7,-999.0,77,-99.99,,,0.01,Acu-Link.com,2013-08-11 18:05:00,
2013-08-11 14:20:00,82.9,74.5,30.07,ENE,67,0.0,-999.0,76,-99.99,,,0.01,Acu-Link.com,2013-08-11 18:20:00,
2013-08-11 14:35:00,82.0,74.4,30.06,ENE,67,2.2,-999.0,78,-99.99,,,0.01,Acu-Link.com,2013-08-11 18:35:00,
2013-08-11 14:51:00,81.0,73.5,30.06,ENE,67,1.1,-999.0,78,-99.99,,,0.01,Acu-Link.com,2013-08-11 18:51:00,
2013-08-11 15:06:00,82.8,72.8,30.06,ENE,67,1.1,-999.0,72,-99.99,,,0.01,Acu-Link.com,2013-08-11 19:06:00,
2013-08-11 15:21:00,82.6,73.9,30.05,NNE,22,1.7,-999.0,75,-99.99,,,0.01,Acu-Link.com,2013-08-11 19:21:00,
2013-08-11 15:36:00,85.3,73.9,30.05,WSW,247,1.1,-999.0,69,-99.99,,,0.01,Acu-Link.com,2013-08-11 19:36:00,
2013-08-11 16:07:00,84.6,73.3,30.03,ESE,112,0.0,-999.0,69,-99.99,,,0.01,Acu-Link.com,2013-08-11 20:07:00,
2013-08-11 16:37:00,84.0,73.6,30.02,ENE,67,2.2,-999.0,71,-99.99,,,0.01,Acu-Link.com,2013-08-11 20:37:00,
2013-08-11 16:52:00,83.5,73.5,30.02,ESE,112,0.0,-999.0,72,-99.99,,,0.01,Acu-Link.com,2013-08-11 20:52:00,
2013-08-11 17:08:00,83.7,74.9,30.02,West,270,0.0,-999.0,75,-99.99,,,0.01,Acu-Link.com,2013-08-11 21:08:00,
2013-08-11 17:23:00,83.1,73.9,30.02,WSW,247,0.0,-999.0,74,-99.99,,,0.01,Acu-Link.com,2013-08-11 21:23:00,
2013-08-11 17:39:00,83.1,75.1,30.02,NE,45,0.0,-999.0,77,-99.99,,,0.01,Acu-Link.com,2013-08-11 21:39:00,
2013-08-11 17:54:00,82.0,73.7,30.02,ESE,112,1.1,-999.0,76,-99.99,,,0.01,Acu-Link.com,2013-08-11 21:54:00,
2013-08-11 18:09:00,80.8,74.0,30.02,West,270,2.7,-999.0,80,-99.99,,,0.01,Acu-Link.com,2013-08-11 22:09:00,
2013-08-11 18:24:00,80.6,74.2,30.02,NNW,337,0.0,-999.0,81,-99.99,,,0.01,Acu-Link.com,2013-08-11 22:24:00,
2013-08-11 18:39:00,80.1,74.1,30.03,NNE,22,0.0,-999.0,82,-99.99,,,0.01,Acu-Link.com,2013-08-11 22:39:00,
2013-08-11 18:55:00,79.0,73.7,30.03,NW,315,0.0,-999.0,84,-99.99,,,0.01,Acu-Link.com,2013-08-11 22:55:00,
2013-08-11 19:10:00,78.3,73.4,30.03,NE,45,2.7,-999.0,85,-99.99,,,0.01,Acu-Link.com,2013-08-11 23:10:00,
2013-08-11 19:25:00,78.1,73.6,30.05,West,270,0.0,-999.0,86,-99.99,,,0.01,Acu-Link.com,2013-08-11 23:25:00,
2013-08-11 19:41:00,77.2,73.0,30.05,NE,45,2.2,-999.0,87,-99.99,,,0.01,Acu-Link.com,2013-08-11 23:41:00,
2013-08-11 20:11:00,75.9,72.1,30.05,ENE,67,0.0,-999.0,88,-99.99,,,0.01,Acu-Link.com,2013-08-12 00:11:00,
2013-08-11 20:27:00,75.2,71.7,30.04,SW,225,0.0,-999.0,89,-99.99,,,0.01,Acu-Link.com,2013-08-12 00:27:00,
2013-08-11 20:42:00,74.8,71.7,30.04,South,180,0.0,-999.0,90,-99.99,,,0.01,Acu-Link.com,2013-08-12 00:42:00,
2013-08-11 20:57:00,74.5,72.0,30.04,West,270,0.0,-999.0,92,-99.99,,,0.01,Acu-Link.com,2013-08-12 00:57:00,
2013-08-11 21:43:00,72.7,71.5,30.05,South,180,0.0,-999.0,96,-99.99,,,0.01,Acu-Link.com,2013-08-12 01:43:00,
2013-08-11 21:58:00,72.5,71.6,30.05,South,180,0.0,-999.0,97,-99.99,,,0.01,Acu-Link.com,2013-08-12 01:58:00,
2013-08-11 22:14:00,72.0,71.1,30.06,SE,135,0.0,-999.0,97,-99.99,,,0.01,Acu-Link.com,2013-08-12 02:14:00,
2013-08-11 22:29:00,71.6,71.0,30.06,ENE,67,0.0,-999.0,98,-99.99,,,0.01,Acu-Link.com,2013-08-12 02:29:00,
2013-08-11 22:44:00,71.4,71.1,30.08,SW,225,0.0,-999.0,99,-99.99,,,0.01,Acu-Link.com,2013-08-12 02:44:00,
2013-08-11 23:15:00,71.2,70.9,30.07,West,270,0.0,-999.0,99,-99.99,,,0.01,Acu-Link.com,2013-08-12 03:15:00,
2013-08-11 23:30:00,70.9,70.6,30.06,West,270,0.0,-999.0,99,-99.99,,,0.01,Acu-Link.com,2013-08-12 03:30:00,